Tracking 19847 objects as of 16-Sep-2019
HD Live streaming from Space Station
objects crossing your sky now

FENGYUN 1C DEB

Track FENGYUN 1C DEB now!
10-day predictions


NORAD ID: 31033
Int'l Code: 1999-025BEB
Perigee: 703.4 km
Apogee: 931.3 km
Inclination: 98.5 °
Period: 101.1 minutes
Semi major axis: 7188 km
RCS: 0.0023 m2 (small)
Launch date: May 10, 1999
Source: People's Republic of China (PRC)
Launch site: Taiyaun Space Center, China (TSC)

Note: This is SATELLITE DEBRIS
aabbcc
Your satellite tracking list
Your tracking list is empty




NASA's NSSDC Master Catalog

Two Line Element Set (TLE):
1 31033U 99025BEB 19258.38457503 +.00000035 +00000-0 +30457-4 0  9996
2 31033 098.4785 298.9063 0158508 320.2110 105.0009 14.24480969648613
Source of the keplerian elements: AFSPC